Weather History for Little Rock AFB, AR

Change the Weather History Date:

Monday, April 21, 2014

  Actual Average Record
Temperature  
Mean Temperature 68 °F -  
Max Temperature 79 °F 73 °F 89 °F (1987)
Min Temperature 60 °F 50 °F 31 °F (1983)
Cooling Degree Days 4    
Growing Degree Days 18 (Base 50)    
Moisture  
Dew Point 61 °F    
Average Humidity 84    
Maximum Humidity 100    
Minimum Humidity 55    
Precipitation  
Precipitation 0.17 in - - ()
Sea Level Pressure  
Sea Level Pressure 30.00 in    
Wind  
Wind Speed 4 mph (SW)    
Max Wind Speed 13 mph    
Max Gust Speed -    
Visibility 7 miles    
Events Fog , Rain , Thunderstorm    
Averages and records for this station are not official NWS values.
T = Trace of Precipitation, MM = Missing Value Source: NWS Daily Summary

Daily Weather History Graph

Daily Weather History Graph

Search for Another Location

Airport:

Trip Planner

Search our weather history database for the weather conditions in past years. The results will help you decide how hot, cold, wet, or windy it might be!

Date:

Astronomy

Apr. 21, 2014 Rise Set
Actual Time 6:29 AM CDT 7:45 PM CDT
Civil Twilight 6:02 AM CDT 8:12 PM CDT
Nautical Twilight 5:31 AM CDT 8:43 PM CDT
Astronomical Twilight 4:58 AM CDT 9:16 PM CDT
Moon 1:12 AM CDT (4/21) 11:59 AM CDT (4/21)
Length of Visible Light 14h 09m
Length of Day
13h 16m
Waning Gibbous, 57% of the Moon is Illuminated
Apr 21
Waning Gibbous
Apr 22
Last Quarter
Apr 29
New
May 6
First Quarter
May 14
Full

Hourly Weather History & Observations

Time (CDT) Temp. Dew Point Humidity Pressure Visibility Wind Dir Wind Speed Gust Speed Precip Events Conditions
12:58 AM 67.5 °F 53.6 °F 61% 30.06 in 10.0 mi South 4.6 mph - N/A   Clear
1:43 AM 60.8 °F 55.4 °F 82% 30.05 in 10.0 mi South 3.5 mph - N/A Rain Light Rain
1:54 AM 60.8 °F 55.4 °F 82% 30.05 in 10.0 mi South 4.6 mph - N/A   Partly Cloudy
1:58 AM 60.6 °F 55.0 °F 82% 30.06 in 10.0 mi South 4.6 mph - 0.00 in   Partly Cloudy
1:59 AM 60.8 °F 55.4 °F 82% 30.05 in 10.0 mi South 3.5 mph - N/A Rain Light Rain
2:08 AM 60.8 °F 55.4 °F 82% 30.04 in 10.0 mi SSE 4.6 mph - N/A   Partly Cloudy
2:36 AM 64.4 °F 53.6 °F 68% 30.04 in 10.0 mi South 5.8 mph - N/A Rain Light Rain
2:49 AM 64.4 °F 53.6 °F 68% 30.04 in 10.0 mi South 5.8 mph - N/A   Partly Cloudy
2:58 AM 65.1 °F 53.1 °F 65% 30.04 in 10.0 mi South 4.6 mph - 0.00 in   Scattered Clouds
3:51 AM 66.2 °F 53.6 °F 64% 30.04 in 10.0 mi SSE 5.8 mph - N/A Rain Light Rain
3:58 AM 65.7 °F 53.2 °F 64% 30.04 in 10.0 mi SSE 4.6 mph - 0.00 in Rain Light Rain
4:00 AM 66.2 °F 53.6 °F 64% 30.03 in 10.0 mi SSE 4.6 mph - N/A   Scattered Clouds
4:54 AM 60.8 °F 57.2 °F 88% 30.03 in 10.0 mi South 3.5 mph - N/A Rain Light Rain
4:57 AM 60.8 °F 57.2 °F 88% 30.03 in 10.0 mi South 3.5 mph - N/A   Mostly Cloudy
4:58 AM 61.2 °F 56.7 °F 85% 30.04 in 10.0 mi South 3.5 mph - 0.00 in   Mostly Cloudy
4:59 AM 60.8 °F 57.2 °F 88% 30.03 in 10.0 mi South 3.5 mph - N/A Rain Light Rain
5:04 AM 60.8 °F 57.2 °F 88% 30.02 in 10.0 mi South 3.5 mph - N/A   Mostly Cloudy
5:17 AM 60.8 °F 55.4 °F 82% 30.02 in 10.0 mi South 4.6 mph - N/A Rain Light Rain
5:25 AM 60.8 °F 57.2 °F 88% 30.02 in 10.0 mi South 3.5 mph - N/A   Partly Cloudy
5:39 AM 62.6 °F 55.4 °F 77% 30.03 in 10.0 mi SSW 2.3 mph - N/A Rain Light Rain
5:45 AM 62.6 °F 55.4 °F 77% 30.02 in 10.0 mi WSW 3.5 mph - N/A   Scattered Clouds
5:58 AM 62.2 °F 55.6 °F 79% 30.04 in 10.0 mi NW 6.9 mph - 0.00 in   Mostly Cloudy
6:12 AM 64.4 °F 53.6 °F 68% 30.03 in 10.0 mi Calm Calm - N/A Rain Light Rain
6:23 AM 62.6 °F 55.4 °F 77% 30.03 in 10.0 mi Calm Calm - N/A   Scattered Clouds
6:58 AM 61.7 °F 55.8 °F 81% 30.04 in 10.0 mi ESE 2.3 mph - 0.00 in   Partly Cloudy
7:58 AM 63.0 °F 57.0 °F 81% 30.06 in 10.0 mi Calm Calm - 0.00 in   Clear
8:58 AM 64.2 °F 57.6 °F 79% 30.06 in 10.0 mi Calm Calm - N/A   Partly Cloudy
9:58 AM 69.6 °F 57.6 °F 65% 30.04 in 10.0 mi Variable 1.2 mph - N/A   Clear
10:58 AM 74.7 °F 57.4 °F 55% 30.04 in 10.0 mi WNW 3.5 mph - N/A   Clear
11:58 AM 76.3 °F 59.5 °F 56% 30.04 in 10.0 mi SSE 3.5 mph - N/A   Scattered Clouds
12:06 PM 77.0 °F 60.8 °F 57% 30.03 in 10.0 mi South 6.9 mph - N/A   Light Drizzle
12:15 PM 75.2 °F 59.0 °F 57% 30.03 in 10.0 mi South 6.9 mph - N/A   Partly Cloudy
12:58 PM 77.5 °F 60.6 °F 56% 30.01 in 10.0 mi South 9.2 mph - 0.00 in   Partly Cloudy
1:58 PM 75.6 °F 61.2 °F 61% 30.00 in 10.0 mi South 10.4 mph - 0.00 in Rain Light Rain
2:10 PM 73.4 °F 62.6 °F 69% 29.99 in 9.0 mi South 12.7 mph - N/A   Light Drizzle
2:12 PM 73.4 °F 62.6 °F 69% 29.99 in 9.0 mi South 11.5 mph - N/A   Light Drizzle
2:15 PM 73.4 °F 62.6 °F 69% 29.99 in 9.0 mi South 5.8 mph - N/A   Partly Cloudy
2:17 PM 73.4 °F 62.6 °F 69% 29.99 in 9.0 mi South 5.8 mph - N/A Rain Light Rain
2:37 PM 69.8 °F 64.4 °F 83% 29.98 in 10.0 mi SSE 5.8 mph - N/A   Scattered Clouds
2:58 PM 71.1 °F 62.8 °F 75% 29.98 in 10.0 mi South 1.2 mph - 0.00 in   Partly Cloudy
3:58 PM 72.9 °F 62.6 °F 70% 29.96 in 10.0 mi North 5.8 mph - N/A   Clear
3:59 PM 73.4 °F 62.6 °F 69% 29.95 in 10.0 mi NNE 6.9 mph - N/A   Mostly Cloudy
4:08 PM 73.4 °F 62.6 °F 69% 29.95 in 10.0 mi North 8.1 mph - N/A   Mostly Cloudy
4:55 PM 69.8 °F 62.6 °F 78% 29.96 in 10.0 mi NW 10.4 mph - N/A Thunderstorm Light Drizzle
4:56 PM 69.8 °F 62.6 °F 78% 29.96 in 9.0 mi NW 9.2 mph - N/A Rain , Thunderstorm Light Rain
4:58 PM 69.8 °F 62.6 °F 78% 29.97 in 8.0 mi NW 6.9 mph - 0.00 in Rain , Thunderstorm Light Rain
5:06 PM 68.0 °F 62.6 °F 83% 29.96 in 3.0 mi WNW 6.9 mph - N/A Rain , Thunderstorm Rain
5:13 PM 68.0 °F 62.6 °F 83% 29.95 in 2.5 mi NW 4.6 mph - N/A Rain , Thunderstorm Rain
5:18 PM 68.0 °F 62.6 °F 83% 29.95 in 2.0 mi NNW 1.2 mph - N/A Rain , Thunderstorm Rain
5:23 PM 66.2 °F 64.4 °F 94% 29.95 in 3.0 mi Calm Calm - N/A Rain , Thunderstorm Rain
5:33 PM 66.2 °F 64.4 °F 94% 29.96 in 7.0 mi West 4.6 mph - N/A Rain Light Rain
5:43 PM 66.2 °F 64.4 °F 94% 29.96 in 9.0 mi West 3.5 mph - N/A Rain Light Rain
5:48 PM 66.2 °F 64.4 °F 94% 29.96 in 10.0 mi WNW 4.6 mph - N/A Rain Light Rain
5:49 PM 66.2 °F 64.4 °F 94% 29.96 in 10.0 mi WNW 4.6 mph - N/A Rain Light Rain
5:58 PM 66.6 °F 65.3 °F 96% 29.97 in 9.0 mi WNW 3.5 mph - 0.14 in Rain Light Rain
6:25 PM 66.2 °F 64.4 °F 94% 29.96 in 10.0 mi WNW 4.6 mph - N/A   Clear
6:51 PM 66.2 °F 64.4 °F 94% 29.96 in 10.0 mi WNW 2.3 mph - N/A Rain Light Rain
6:54 PM 66.2 °F 64.4 °F 94% 29.96 in 10.0 mi WNW 2.3 mph - N/A   Partly Cloudy
6:58 PM 66.2 °F 65.1 °F 96% 29.97 in 10.0 mi WNW 2.3 mph - 0.00 in   Partly Cloudy
7:41 PM 66.2 °F 64.4 °F 94% 29.95 in 9.0 mi SW 2.3 mph - N/A   Partly Cloudy
7:42 PM 66.2 °F 64.4 °F 94% 29.95 in 8.0 mi SW 2.3 mph - N/A Rain Light Rain
7:58 PM 65.7 °F 64.9 °F 98% 29.97 in 6.0 mi WSW 1.2 mph - 0.02 in Rain Light Rain
8:15 PM 66.2 °F 64.4 °F 94% 29.96 in 6.0 mi Calm Calm - N/A Rain Light Rain
8:34 PM 64.4 °F 64.4 °F 100% 29.97 in 6.0 mi Calm Calm - N/A   Clear
8:58 PM 64.8 °F 64.4 °F 99% 29.98 in 6.0 mi Calm Calm - 0.01 in   Clear
9:38 PM 64.4 °F 64.4 °F 100% 29.98 in 2.5 mi Calm Calm - N/A   Scattered Clouds
9:43 PM 64.4 °F 64.4 °F 100% 29.98 in 3.0 mi Calm Calm - N/A   Mostly Cloudy
9:58 PM 64.6 °F 64.2 °F 99% 30.00 in 4.0 mi NW 1.2 mph - N/A   Scattered Clouds
10:03 PM 64.4 °F 64.4 °F 100% 29.98 in 2.0 mi NW 1.2 mph - N/A   Scattered Clouds
10:08 PM 64.4 °F 64.4 °F 100% 29.98 in 1.8 mi NW 1.2 mph - N/A   Scattered Clouds
10:13 PM 64.4 °F 64.4 °F 100% 29.98 in 2.5 mi Calm Calm - N/A   Partly Cloudy
10:18 PM 64.4 °F 64.4 °F 100% 29.98 in 2.0 mi Calm Calm - N/A   Partly Cloudy
10:23 PM 64.4 °F 64.4 °F 100% 29.98 in 1.0 mi Calm Calm - N/A   Partly Cloudy
10:28 PM 64.4 °F 64.4 °F 100% 29.98 in 1.2 mi Calm Calm - N/A   Scattered Clouds
10:33 PM 64.4 °F 64.4 °F 100% 29.98 in 1.8 mi West 1.2 mph - N/A   Partly Cloudy
10:38 PM 64.4 °F 64.4 °F 100% 29.98 in 2.5 mi WNW 2.3 mph - N/A   Partly Cloudy
10:43 PM 64.4 °F 64.4 °F 100% 29.98 in 1.8 mi WNW 2.3 mph - N/A   Scattered Clouds
10:48 PM 64.4 °F 64.4 °F 100% 29.98 in 0.8 mi WNW 2.3 mph - N/A   Scattered Clouds
10:53 PM 64.4 °F 64.4 °F 100% 29.98 in 0.5 mi WNW 1.2 mph - N/A Fog Fog
10:58 PM 64.4 °F 64.4 °F 100% 29.99 in 0.2 mi NW 2.3 mph - N/A Fog Fog
11:08 PM 62.6 °F 62.6 °F 100% 29.98 in 0.5 mi Calm Calm - N/A Fog Fog
11:09 PM 62.6 °F 62.6 °F 100% 29.98 in 0.5 mi Calm Calm - N/A Fog Fog
11:14 PM 62.6 °F 62.6 °F 100% 29.98 in 0.2 mi Calm Calm - N/A Fog Fog
11:58 PM 62.4 °F 62.4 °F 100% 29.98 in 0.2 mi Calm Calm - N/A Fog Fog